Sable Island, Nova Scotia

1:46 AM AST on November 18, 2017 (GMT -0400)
Sable Island

Weather History for CWSA - March, 2013

Change the Weather History Date:

Thursday, March 14, 2013

  Actual Average Record
Temperature  
Mean Temperature 42 °F -  
Max Temperature 48 °F 39 °F 50 °F (2002)
Min Temperature 37 °F 31 °F 17 °F (2003)
Degree Days  
Heating Degree Days 22    
Moisture  
Dew Point 42 °F    
Average Humidity 97    
Maximum Humidity 100    
Minimum Humidity 72    
Precipitation  
Precipitation 0.43 in 0.14 in - ()
Sea Level Pressure  
Sea Level Pressure 29.63 in    
Wind  
Wind Speed 18 mph ()    
Max Wind Speed 25 mph    
Max Gust Speed 30 mph    
Visibility 1.9 miles    
Events Rain    
Averages and records for this station are not official NWS values.
T = Trace of Precipitation, MM = Missing Value Source: Averaged Metar Reports

Daily Weather History Graph

Daily Weather History Graph

Search for Another Location

Airport or City:

Trip Planner

Search our weather history database for the weather conditions in past years. The results will help you decide how hot, cold, wet, or windy it might be!

Date:

Astronomy

Mar. 14, 2013 Rise Set
Actual Time 7:13 AM ADT 7:05 PM ADT
Civil Twilight 6:45 AM ADT 7:34 PM ADT
Nautical Twilight 6:11 AM ADT 8:07 PM ADT
Astronomical Twilight 5:37 AM ADT 8:41 PM ADT
Moon 8:17 AM ADT (3/14) 10:25 PM ADT (3/14)
Length of Visible Light 12h 48m
Length of Day
11h 51m
Waxing Crescent, 8% of the Moon is Illuminated
Mar 14
Waxing Crescent
Mar 19
First Quarter
Mar 27
Full
Apr 3
Last Quarter
Apr 10
New

Hourly Weather History & Observations

Time (ADT) Temp. Windchill Dew Point Humidity Pressure Visibility Wind Dir Wind Speed Gust Speed Precip Events Conditions
12:00 AM 43 °F - 42 °F 96% 29.87 in 3 mi SE 19.6 mph - -  
12:00 AM 42.8 °F 34.3 °F 42.8 °F 100% 29.87 in 3.0 mi SE 19.6 mph - N/A   Mostly Cloudy
12:40 AM 44.6 °F 35.9 °F 42.8 °F 93% 29.83 in 3.0 mi SE 23.0 mph - N/A   Overcast
1:00 AM 44.6 °F 36.4 °F 42.8 °F 93% 29.83 in 3.0 mi SE 20.7 mph - N/A   Mostly Cloudy
1:01 AM 44.6 °F 36.1 °F 42.8 °F 93% 29.82 in 3.0 mi SE 21.9 mph - N/A   Scattered Clouds
1:15 AM 44.6 °F 36.1 °F 42.8 °F 93% 29.82 in 2.5 mi SE 21.9 mph - N/A   Partly Cloudy
2:00 AM 42.8 °F 33.8 °F 42.8 °F 100% 29.80 in 2.2 mi SE 21.9 mph - N/A   Scattered Clouds
2:32 AM 44.6 °F 36.4 °F 42.8 °F 93% 29.78 in 2.5 mi SE 20.7 mph - N/A Rain Light Rain
3:00 AM 44 °F - 44 °F 97% 29.77 in 2 mi SE 20.7 mph - -   Unknown Precipitation
3:00 AM 44.6 °F 36.1 °F 42.8 °F 93% 29.77 in 2.0 mi SE 21.9 mph - N/A Rain Light Rain
3:16 AM 44.6 °F 36.4 °F 44.6 °F 100% 29.76 in 1.4 mi SE 20.7 mph - N/A Rain Light Rain
3:24 AM 44.6 °F 36.6 °F 44.6 °F 100% 29.76 in 1.4 mi SE 19.6 mph - N/A Rain Light Rain
3:36 AM 44.6 °F 36.4 °F 44.6 °F 100% 29.75 in 1.8 mi SE 20.7 mph - N/A Rain Light Rain
3:39 AM 44.6 °F 36.1 °F 42.8 °F 93% 29.74 in 2.0 mi SE 21.9 mph - N/A   Overcast
3:56 AM 42.8 °F 33.5 °F 42.8 °F 100% 29.73 in 2.1 mi SE 23.0 mph - N/A   Overcast
4:00 AM 42.8 °F 33.8 °F 42.8 °F 100% 29.74 in 2.0 mi SE 21.9 mph - N/A   Overcast
4:04 AM 44.6 °F 36.6 °F 42.8 °F 93% 29.73 in 1.6 mi SE 19.6 mph - N/A   Overcast
4:06 AM 42.8 °F 34.3 °F 42.8 °F 100% 29.73 in 1.5 mi SE 19.6 mph - N/A   Overcast
4:07 AM 42.8 °F 34.0 °F 42.8 °F 100% 29.72 in 1.4 mi SE 20.7 mph - N/A Rain Light Rain
4:08 AM 42.8 °F 34.3 °F 42.8 °F 100% 29.72 in 1.4 mi SE 19.6 mph - N/A Rain Light Rain
4:19 AM 42.8 °F 34.5 °F 42.8 °F 100% 29.71 in 1.4 mi SE 18.4 mph - N/A   Overcast
4:24 AM 42.8 °F 34.0 °F 42.8 °F 100% 29.72 in 1.4 mi SSE 20.7 mph - N/A   Drizzle
4:26 AM 44.6 °F 36.1 °F 42.8 °F 93% 29.72 in 1.1 mi SSE 21.9 mph 28.8 mph N/A   Drizzle
4:41 AM 44.6 °F 36.4 °F 44.6 °F 100% 29.71 in 1.0 mi SSE 20.7 mph - N/A   Drizzle
4:42 AM 44.6 °F 36.4 °F 44.6 °F 100% 29.71 in 1.0 mi SSE 20.7 mph - N/A Rain Light Rain
4:45 AM 42.8 °F 34.5 °F 42.8 °F 100% 29.70 in 0.8 mi SE 18.4 mph 24.2 mph N/A Rain Light Rain
4:46 AM 42.8 °F 34.8 °F 42.8 °F 100% 29.70 in 0.6 mi SE 17.3 mph 24.2 mph N/A Rain Light Rain
4:56 AM 42.8 °F 34.0 °F 42.8 °F 100% 29.69 in 1.0 mi SE 20.7 mph - N/A Rain Light Rain
5:00 AM 42.8 °F 34.5 °F 42.8 °F 100% 29.69 in 1.0 mi SE 18.4 mph - N/A   Unknown
5:29 AM 42.8 °F 34.0 °F 42.8 °F 100% 29.67 in 1.4 mi SE 20.7 mph - N/A   Overcast
5:32 AM 42.8 °F 34.3 °F 42.8 °F 100% 29.67 in 1.4 mi SE 19.6 mph - N/A   Overcast
5:37 AM 44.6 °F 36.6 °F 42.8 °F 93% 29.67 in 0.8 mi SE 19.6 mph - N/A   Unknown
5:39 AM 42.8 °F 34.0 °F 42.8 °F 100% 29.66 in 0.6 mi SE 20.7 mph - N/A   Unknown
5:53 AM 42.8 °F 34.0 °F 42.8 °F 100% 29.66 in 0.4 mi SE 20.7 mph 27.6 mph N/A   Unknown
6:00 AM 43 °F - 43 °F 100% 29.66 in 0 mi SE 20.7 mph - -   Overcast
6:22 AM 44.6 °F 36.4 °F 44.6 °F 100% 29.64 in 0.8 mi SE 20.7 mph 27.6 mph N/A   Overcast
6:36 AM 44.6 °F 36.1 °F 44.6 °F 100% 29.63 in 0.6 mi SE 21.9 mph 27.6 mph N/A   Unknown
6:41 AM 44.6 °F 36.1 °F 44.6 °F 100% 29.63 in 0.4 mi SE 21.9 mph 29.9 mph N/A   Unknown
7:00 AM 44.6 °F 36.4 °F 44.6 °F 100% 29.62 in 0.2 mi SE 20.7 mph - N/A   Overcast
7:01 AM 44.6 °F 36.4 °F 44.6 °F 100% 29.62 in 0.2 mi SE 20.7 mph - N/A   Unknown
7:04 AM 44.6 °F 36.9 °F 44.6 °F 100% 29.62 in 0.2 mi SE 18.4 mph 24.2 mph N/A Rain Light Rain
8:00 AM 44.6 °F 36.1 °F 44.6 °F 100% 29.60 in 0.4 mi SE 21.9 mph - N/A Rain Light Rain
8:04 AM 44.6 °F 36.1 °F 44.6 °F 100% 29.59 in 0.4 mi SE 21.9 mph 27.6 mph N/A   Unknown
8:24 AM 44.6 °F 35.5 °F 44.6 °F 100% 29.59 in 0.4 mi SSE 25.3 mph - N/A Rain Light Rain
8:40 AM 44.6 °F 35.5 °F 44.6 °F 100% 29.59 in 0.6 mi SSE 25.3 mph - N/A Rain Light Rain
9:00 AM 45 °F - 45 °F 98% 29.58 in 1 mi SSE 24.2 mph - -   Unknown Precipitation
9:00 AM 44.6 °F 35.7 °F 44.6 °F 100% 29.58 in 0.6 mi SSE 24.2 mph - N/A Rain Rain
9:07 AM 44.6 °F 35.9 °F 44.6 °F 100% 29.57 in 0.5 mi SSE 23.0 mph - N/A   Unknown
9:10 AM 44.6 °F 35.7 °F 44.6 °F 100% 29.57 in 0.5 mi SSE 24.2 mph - N/A Rain Light Rain
9:15 AM 44.6 °F 36.4 °F 44.6 °F 100% 29.57 in 0.6 mi SSE 20.7 mph - N/A Rain Light Rain
9:17 AM 44.6 °F 36.4 °F 44.6 °F 100% 29.57 in 0.6 mi SSE 20.7 mph - N/A Rain Light Rain
9:18 AM 44.6 °F 36.1 °F 44.6 °F 100% 29.57 in 1.0 mi SSE 21.9 mph - N/A Rain Light Rain
9:23 AM 44.6 °F 35.7 °F 44.6 °F 100% 29.57 in 1.4 mi SSE 24.2 mph - N/A Rain Light Rain
9:28 AM 44.6 °F 35.9 °F 44.6 °F 100% 29.57 in 1.4 mi SSE 23.0 mph - N/A   Mostly Cloudy
9:33 AM 44.6 °F 35.9 °F 44.6 °F 100% 29.56 in 1.6 mi SSE 23.0 mph - N/A   Mostly Cloudy
9:48 AM 44.6 °F 35.7 °F 44.6 °F 100% 29.55 in 1.6 mi SSE 24.2 mph - N/A   Overcast
9:58 AM 44.6 °F 36.1 °F 44.6 °F 100% 29.55 in 1.5 mi SSE 21.9 mph - N/A   Overcast
10:00 AM 44.6 °F 36.1 °F 44.6 °F 100% 29.56 in 1.5 mi SSE 21.9 mph - N/A   Overcast
10:05 AM 44.6 °F 36.1 °F 44.6 °F 100% 29.55 in 1.5 mi SSE 21.9 mph - N/A Rain Light Rain
10:13 AM 44.6 °F 36.9 °F 44.6 °F 100% 29.55 in 1.4 mi South 18.4 mph 24.2 mph N/A Rain Light Rain
10:14 AM 44.6 °F 36.9 °F 44.6 °F 100% 29.56 in 1.4 mi South 18.4 mph 24.2 mph N/A Rain Light Rain
10:17 AM 44.6 °F 37.2 °F 44.6 °F 100% 29.58 in 1.2 mi SSW 17.3 mph 24.2 mph N/A Rain Light Rain
10:26 AM 48.2 °F - 46.4 °F 93% 29.56 in 1.4 mi South 23.0 mph - N/A Rain Rain
10:33 AM 46.4 °F 39.2 °F 46.4 °F 100% 29.56 in 1.4 mi SSW 18.4 mph 27.6 mph N/A Rain Rain
10:36 AM 46.4 °F 39.2 °F 46.4 °F 100% 29.55 in 1.8 mi SSW 18.4 mph 24.2 mph N/A Rain Rain
10:41 AM 46.4 °F 38.7 °F 46.4 °F 100% 29.55 in 1.4 mi SW 20.7 mph - N/A Rain Rain
10:47 AM 46.4 °F 38.5 °F 46.4 °F 100% 29.56 in 1.0 mi SSW 21.9 mph 28.8 mph N/A Rain Heavy Rain
11:00 AM 46.4 °F 40.1 °F 46.4 °F 100% 29.56 in 0.8 mi SSW 15.0 mph - N/A Rain Heavy Rain
11:02 AM 46.4 °F 40.7 °F 46.4 °F 100% 29.55 in 0.6 mi SSW 12.7 mph 18.4 mph N/A Rain Heavy Rain
11:09 AM 44.6 °F 38.8 °F 44.6 °F 100% 29.55 in 0.6 mi SSW 11.5 mph - N/A Rain Rain
11:16 AM 44.6 °F 38.4 °F 44.6 °F 100% 29.56 in 0.5 mi South 12.7 mph - N/A Rain Rain
11:19 AM 44.6 °F 38.8 °F 44.6 °F 100% 29.55 in 0.5 mi South 11.5 mph - N/A Rain Rain
11:30 AM 44.6 °F 39.2 °F 44.6 °F 100% 29.55 in 0.4 mi South 10.4 mph - N/A Rain Light Rain
11:49 AM 42.8 °F 35.8 °F 42.8 °F 100% 29.55 in 0.4 mi SW 13.8 mph - N/A Rain Rain
11:56 AM 42.8 °F 36.6 °F 42.8 °F 100% 29.55 in 0.8 mi WSW 11.5 mph - N/A Rain Rain
12:00 PM 42 °F - 42 °F 99% 29.55 in 1 mi WSW 10.4 mph - -   Overcast
12:00 PM 42.8 °F 37.5 °F 42.8 °F 100% 29.55 in 1.1 mi West 9.2 mph - N/A   Unknown
12:02 PM 41.0 °F 34.7 °F 41.0 °F 100% 29.55 in 1.1 mi West 10.4 mph - N/A   Overcast
12:13 PM 41.0 °F 33.9 °F 41.0 °F 100% 29.54 in 1.4 mi West 12.7 mph 18.4 mph N/A Rain Rain
12:21 PM 41.0 °F 33.9 °F 41.0 °F 100% 29.54 in 2.0 mi West 12.7 mph 18.4 mph N/A Rain Rain
12:23 PM 41.0 °F 33.5 °F 41.0 °F 100% 29.55 in 2.0 mi West 13.8 mph - N/A Rain Rain
12:39 PM 41.0 °F 33.1 °F 39.2 °F 93% 29.55 in 2.5 mi West 15.0 mph 21.9 mph N/A Rain Light Rain
12:45 PM 41.0 °F 33.1 °F 41.0 °F 100% 29.56 in 3.5 mi West 15.0 mph - N/A Rain Light Rain
12:52 PM 39.2 °F 31.6 °F 39.2 °F 100% 29.57 in 3.5 mi West 12.7 mph 19.6 mph N/A   Unknown
12:55 PM 39.2 °F 31.6 °F 39.2 °F 100% 29.57 in 3.0 mi West 12.7 mph 18.4 mph N/A   Overcast
12:58 PM 39.2 °F 31.2 °F 39.2 °F 100% 29.57 in 3.0 mi West 13.8 mph - N/A   Overcast
1:00 PM 39.2 °F 31.2 °F 39.2 °F 100% 29.58 in 3.0 mi West 13.8 mph - N/A   Unknown
1:10 PM 39.2 °F 31.2 °F 39.2 °F 100% 29.58 in 3.0 mi West 13.8 mph 19.6 mph N/A   Overcast
1:14 PM 39.2 °F 31.2 °F 39.2 °F 100% 29.59 in 2.5 mi West 13.8 mph - N/A   Overcast
1:35 PM 39.2 °F 31.6 °F 39.2 °F 100% 29.59 in 1.5 mi West 12.7 mph - N/A   Overcast
1:38 PM 39.2 °F 31.2 °F 39.2 °F 100% 29.59 in 1.4 mi West 13.8 mph - N/A   Overcast
1:44 PM 39.2 °F 30.5 °F 39.2 °F 100% 29.58 in 1.0 mi West 16.1 mph - N/A   Overcast
1:56 PM 41.0 °F 32.8 °F 41.0 °F 100% 29.58 in 1.6 mi West 16.1 mph - N/A   Mostly Cloudy
1:58 PM 39.2 °F 29.8 °F 39.2 °F 100% 29.58 in 2.4 mi West 18.4 mph - N/A   Overcast
2:00 PM 39.2 °F 30.5 °F 39.2 °F 100% 29.58 in 2.5 mi West 16.1 mph 21.9 mph N/A   Overcast
2:01 PM 39.2 °F 30.8 °F 39.2 °F 100% 29.58 in 2.5 mi West 15.0 mph 21.9 mph N/A   Mostly Cloudy
2:10 PM 41.0 °F 32.8 °F 39.2 °F 93% 29.58 in 3.5 mi West 16.1 mph - N/A   Partly Cloudy
3:00 PM 40 °F - 37 °F 87% 29.58 in 5 mi West 16.1 mph - -   Unknown Precipitation
3:00 PM 41.0 °F 32.5 °F 37.4 °F 87% 29.58 in 5.0 mi West 17.3 mph - N/A   Partly Cloudy
4:00 PM 41.0 °F 32.8 °F 35.6 °F 81% 29.60 in 6.0 mi West 16.1 mph - N/A   Clear
5:00 PM 41.0 °F 33.5 °F 33.8 °F 76% 29.60 in 7.0 mi West 13.8 mph 21.9 mph N/A   Clear
6:00 PM 39 °F - 33 °F 72% 29.62 in 7 mi West 15.0 mph - -  
6:00 PM 39.2 °F 31.2 °F 33.8 °F 81% 29.62 in 7.0 mi West 13.8 mph 19.6 mph N/A   Clear
7:00 PM 37.4 °F 29.8 °F 33.8 °F 87% 29.63 in 6.0 mi West 11.5 mph 19.6 mph N/A   Clear
8:00 PM 37.4 °F 29.3 °F 33.8 °F 87% 29.65 in 4.0 mi West 12.7 mph - N/A   Clear
9:00 PM 37 °F - 33 °F 80% 29.65 in 4 mi West 10.4 mph - -  
9:00 PM 37.4 °F 29.8 °F 33.8 °F 87% 29.65 in 4.0 mi West 11.5 mph - N/A   Clear
10:00 PM 37.4 °F 28.9 °F 33.8 °F 87% 29.65 in 4.0 mi West 13.8 mph - N/A   Clear
11:00 PM 37.4 °F 29.8 °F 33.8 °F 87% 29.64 in 4.0 mi West 11.5 mph - N/A   Clear